OISY

Details ICAO OISY (YES)
Name YASOUJ
Region Iran
Timezone Asia/Tehran (UTC+4.5)
Plans Departing 6
Arriving 19
Stats Elevation 5,939 ft / 1,810 m (AMSL)
Location 30.700477° 51.545094°
Runways 1
Magnetic Variation 3.529° E
Sunrise 2018-05-27 01:34:41 UTC / 2018-05-27 06:04:41 Local
Sunset 2018-05-27 15:30:06 UTC / 2018-05-27 20:00:06 Local
Advertisement - Login to hide

Runways

ID Width Length Bearing (true) Bearing (mag) Surface Threshold Offset Overrun Length
13 148 ft / 45 m 8,527 ft / 2,599 m 132.60° 129.07° Asphalt 0 ft / 0 m 465 ft / 142 m
31 148 ft / 45 m 8,527 ft / 2,599 m 312.62° 309.09° Asphalt 0 ft / 0 m 675 ft / 206 m

Map

Weather


0- 5 10 15 20 25 30 35+ Temperature / ° C

Clouds and Precipitation
Forecast for 2018-05-27 18:00 UTC. Updated 44 minutes ago

Ground ~20,000 ft ~40,000 ft Winds

METAR

OISY 271800Z 09008KT CAVOK 21/M02 Q1021

TAF

Not found

Frequencies

Tower 121.80 MHz AFIS
Tower 123.75 MHz AFIS
Warning: Do not use this data for real-world aviation or navigation. No guarantee of current accuracy is given.